AAL514 KSMF-KORD

Flight info

Callsign AAL514
Flight time 3h 44m
Altitude 33000
Route SCTWN4 MACUS Q122 ONL/N0447F350 Q122 VIGGR MYRRS FYTTE7
Aircraft A321/M-SDE3FGHIRWY/LB1

Departure

Time 2026-05-04 00:37
Airport Sacramento International Airport (KSMF)

Arrival

Time 2026-05-04 04:21
Airport Chicago O'Hare International Airport (KORD)
Time Latitude Longitude Altitude Speed Heading
2026-05-03 23:18 38.69338 -121.58593 24 ft 0 kts 251°
2026-05-04 00:27 38.69344 -121.58568 27 ft 4 kts 258°
2026-05-04 00:27 38.69347 -121.58535 27 ft 4 kts 277°
2026-05-04 00:27 38.69339 -121.58506 26 ft 4 kts 319°
2026-05-04 00:27 38.69325 -121.58496 27 ft 1 kts
2026-05-04 00:28 38.69321 -121.58497 27 ft 0 kts
2026-05-04 00:31 38.69339 -121.58496 26 ft 6 kts
2026-05-04 00:31 38.69387 -121.58531 23 ft 11 kts 295°
2026-05-04 00:31 38.69452 -121.58612 23 ft 17 kts 350°
2026-05-04 00:32 38.69588 -121.58614 23 ft 23 kts
2026-05-04 00:32 38.69718 -121.58611 23 ft 14 kts
2026-05-04 00:32 38.69764 -121.58717 23 ft 18 kts 271°
2026-05-04 00:32 38.69766 -121.58903 23 ft 24 kts 270°
2026-05-04 00:33 38.69768 -121.59135 23 ft 29 kts 271°
2026-05-04 00:33 38.69772 -121.59645 23 ft 25 kts 270°
2026-05-04 00:33 38.69776 -121.59814 23 ft 14 kts 281°
2026-05-04 00:34 38.69878 -121.59861 23 ft 20 kts
2026-05-04 00:34 38.70036 -121.59858 23 ft 25 kts
2026-05-04 00:34 38.70231 -121.59855 23 ft 31 kts
2026-05-04 00:34 38.70459 -121.59851 23 ft 34 kts
2026-05-04 00:35 38.70649 -121.59849 23 ft 20 kts
2026-05-04 00:35 38.70719 -121.59929 23 ft 15 kts 275°
2026-05-04 00:35 38.70724 -121.60062 23 ft 13 kts 271°
2026-05-04 00:35 38.70678 -121.60111 23 ft 1 kts 182°
2026-05-04 00:36 38.70648 -121.60112 23 ft 23 kts 181°
2026-05-04 00:36 38.70242 -121.60121 26 ft 91 kts 180°
2026-05-04 00:36 38.69411 -121.60133 27 ft 146 kts 180°
2026-05-04 00:37 38.68339 -121.60151 474 ft 154 kts 179°
2026-05-04 00:37 38.67316 -121.59875 1235 ft 157 kts 148°
2026-05-04 00:37 38.66642 -121.58740 1787 ft 172 kts 110°
2026-05-04 00:37 38.66567 -121.56958 1641 ft 242 kts 87°
2026-05-04 00:38 38.66753 -121.54731 2297 ft 259 kts 90°
2026-05-04 00:38 38.66670 -121.52415 3309 ft 262 kts 101°
2026-05-04 00:38 38.66194 -121.50171 4446 ft 259 kts 110°
2026-05-04 00:38 38.65747 -121.47930 5515 ft 261 kts 97°
2026-05-04 00:39 38.65664 -121.45634 6342 ft 260 kts 90°
2026-05-04 00:39 38.65654 -121.43405 7409 ft 232 kts 91°
2026-05-04 00:39 38.65656 -121.41258 7738 ft 252 kts 89°
2026-05-04 00:39 38.65745 -121.38963 7944 ft 269 kts 88°
2026-05-04 00:40 38.65844 -121.36538 8435 ft 275 kts 89°
2026-05-04 00:40 38.65910 -121.34077 8994 ft 279 kts 90°
2026-05-04 00:40 38.65936 -121.31582 9574 ft 282 kts 92°
2026-05-04 00:40 38.65930 -121.29061 10120 ft 285 kts 92°
2026-05-04 00:41 38.65903 -121.26459 10319 ft 302 kts 93°
2026-05-04 00:41 38.65860 -121.23692 10453 ft 320 kts 93°
2026-05-04 00:41 38.65808 -121.20767 10570 ft 338 kts 93°
2026-05-04 00:41 38.65753 -121.17728 10682 ft 355 kts 93°
2026-05-04 00:42 38.65694 -121.14523 10977 ft 364 kts 93°
2026-05-04 00:42 38.65637 -121.11263 11458 ft 368 kts 93°
2026-05-04 00:42 38.65578 -121.07973 11977 ft 372 kts 93°
2026-05-04 00:42 38.65519 -121.04674 12505 ft 375 kts 93°
2026-05-04 00:43 38.65457 -121.01328 13055 ft 378 kts 93°
2026-05-04 00:43 38.65394 -120.97947 13602 ft 381 kts 93°
2026-05-04 00:43 38.65333 -120.94589 14098 ft 384 kts 94°
2026-05-04 00:43 38.65270 -120.91169 14635 ft 385 kts 94°
2026-05-04 00:44 38.65203 -120.87739 15173 ft 386 kts 94°
2026-05-04 00:44 38.65133 -120.84297 15725 ft 387 kts 94°
2026-05-04 00:44 38.65063 -120.80852 16273 ft 389 kts 94°
2026-05-04 00:44 38.64998 -120.77388 16808 ft 390 kts 92°
2026-05-04 00:45 38.65223 -120.73912 17329 ft 395 kts 82°
2026-05-04 00:45 38.65964 -120.70507 17849 ft 400 kts 71°
2026-05-04 00:45 38.67218 -120.67307 18349 ft 406 kts 60°
2026-05-04 00:45 38.68919 -120.64459 18764 ft 411 kts 52°
2026-05-04 00:46 38.70784 -120.61685 19207 ft 411 kts 52°
2026-05-04 00:46 38.72642 -120.58904 19621 ft 412 kts 53°
2026-05-04 00:46 38.74500 -120.56106 20053 ft 412 kts 53°
2026-05-04 00:46 38.76353 -120.53305 20496 ft 413 kts 53°
2026-05-04 00:47 38.78209 -120.50498 20920 ft 413 kts 53°
2026-05-04 00:47 38.80072 -120.47682 21330 ft 414 kts 52°
2026-05-04 00:47 38.81915 -120.44899 21710 ft 415 kts 52°
2026-05-04 00:47 38.83788 -120.42077 22106 ft 416 kts 52°
2026-05-04 00:48 38.85668 -120.39238 22460 ft 418 kts 52°
2026-05-04 00:48 38.87552 -120.36392 22849 ft 419 kts 52°
2026-05-04 00:48 38.89438 -120.33536 23246 ft 420 kts 52°
2026-05-04 00:48 38.91299 -120.30712 23605 ft 422 kts 52°
2026-05-04 00:49 38.93197 -120.27833 23897 ft 423 kts 52°
2026-05-04 00:49 38.95101 -120.24942 24161 ft 425 kts 52°
2026-05-04 00:49 38.97016 -120.22030 24424 ft 427 kts 52°
2026-05-04 00:49 38.98907 -120.19152 24681 ft 429 kts 52°
2026-05-04 00:50 39.00838 -120.16215 24950 ft 431 kts 52°
2026-05-04 00:50 39.02774 -120.13266 25214 ft 433 kts 52°
2026-05-04 00:50 39.04719 -120.10296 25459 ft 435 kts 52°
2026-05-04 00:50 39.06669 -120.07313 25694 ft 437 kts 52°
2026-05-04 00:51 39.08630 -120.04312 25927 ft 439 kts 52°
2026-05-04 00:51 39.10598 -120.01298 26160 ft 441 kts 52°
2026-05-04 00:51 39.12579 -119.98269 26371 ft 443 kts 52°
2026-05-04 00:51 39.14554 -119.95246 26610 ft 445 kts 52°
2026-05-04 00:52 39.16523 -119.92226 26848 ft 447 kts 52°
2026-05-04 00:52 39.18519 -119.89157 27154 ft 447 kts 52°
2026-05-04 00:52 39.20515 -119.86089 27540 ft 446 kts 52°
2026-05-04 00:52 39.22504 -119.83026 27924 ft 445 kts 52°
2026-05-04 00:53 39.24486 -119.79972 28308 ft 443 kts 52°
2026-05-04 00:53 39.26465 -119.76927 28676 ft 443 kts 52°
2026-05-04 00:53 39.28439 -119.73885 29038 ft 441 kts 52°
2026-05-04 00:53 39.30407 -119.70847 29389 ft 441 kts 52°
2026-05-04 00:54 39.32367 -119.67816 29739 ft 439 kts 52°
2026-05-04 00:54 39.34297 -119.64829 30098 ft 438 kts 52°
2026-05-04 00:54 39.36243 -119.61811 30408 ft 437 kts 52°
2026-05-04 00:54 39.38183 -119.58796 30730 ft 435 kts 52°
2026-05-04 00:55 39.40117 -119.55794 31034 ft 434 kts 52°
2026-05-04 00:55 39.42046 -119.52800 31337 ft 432 kts 52°
2026-05-04 00:55 39.43967 -119.49811 31612 ft 432 kts 53°
2026-05-04 00:55 39.45882 -119.46826 31884 ft 431 kts 53°
2026-05-04 00:56 39.47794 -119.43845 32130 ft 430 kts 53°
2026-05-04 00:56 39.49706 -119.40870 32387 ft 429 kts 53°
2026-05-04 00:56 39.51589 -119.37937 32622 ft 429 kts 53°
2026-05-04 00:56 39.53490 -119.34969 32839 ft 429 kts 53°
2026-05-04 00:57 39.55394 -119.31993 32889 ft 429 kts 53°
2026-05-04 00:57 39.59201 -119.26020 32871 ft 430 kts 53°
2026-05-04 00:58 39.63017 -119.20024 32851 ft 431 kts 53°
2026-05-04 00:58 39.66841 -119.14019 32834 ft 432 kts 53°
2026-05-04 00:59 39.70639 -119.08033 32824 ft 432 kts 53°
2026-05-04 00:59 39.74463 -119.02000 32817 ft 432 kts 53°
2026-05-04 01:00 39.78281 -118.95970 32810 ft 432 kts 53°
2026-05-04 01:00 39.82086 -118.89936 32809 ft 431 kts 53°
2026-05-04 01:01 39.85860 -118.83935 32837 ft 431 kts 53°
2026-05-04 01:01 39.89317 -118.77616 32861 ft 427 kts 64°
2026-05-04 01:02 39.92105 -118.70795 32889 ft 427 kts 64°
2026-05-04 01:02 39.94885 -118.63970 32920 ft 427 kts 64°
2026-05-04 01:03 39.97664 -118.57132 32938 ft 427 kts 64°
2026-05-04 01:03 40.00424 -118.50337 32932 ft 427 kts 64°
2026-05-04 01:04 40.03201 -118.43486 32919 ft 427 kts 64°
2026-05-04 01:04 40.05978 -118.36620 32896 ft 428 kts 64°
2026-05-04 01:05 40.08747 -118.29740 32866 ft 428 kts 64°
2026-05-04 01:05 40.11501 -118.22904 32835 ft 428 kts 64°
2026-05-04 01:06 40.14272 -118.16010 32808 ft 429 kts 64°
2026-05-04 01:06 40.17035 -118.09104 32790 ft 429 kts 64°
2026-05-04 01:07 40.19783 -118.02209 32794 ft 429 kts 66°
2026-05-04 01:07 40.22000 -117.95045 32794 ft 428 kts 70°
2026-05-04 01:08 40.24175 -117.87794 32793 ft 428 kts 70°
2026-05-04 01:08 40.26357 -117.80538 32792 ft 429 kts 70°
2026-05-04 01:09 40.28532 -117.73266 32798 ft 429 kts 70°
2026-05-04 01:09 40.30689 -117.66028 32800 ft 429 kts 70°
2026-05-04 01:10 40.32858 -117.58734 32800 ft 430 kts 70°
2026-05-04 01:10 40.35016 -117.51427 32803 ft 430 kts 70°
2026-05-04 01:11 40.37175 -117.44109 32806 ft 431 kts 70°
2026-05-04 01:11 40.39321 -117.36829 32806 ft 431 kts 70°
2026-05-04 01:12 40.41482 -117.29494 32805 ft 431 kts 70°
2026-05-04 01:12 40.43638 -117.22147 32826 ft 432 kts 70°
2026-05-04 01:13 40.45788 -117.14784 32851 ft 432 kts 70°
2026-05-04 01:13 40.47934 -117.07413 32873 ft 432 kts 70°
2026-05-04 01:14 40.50065 -117.00082 32895 ft 432 kts 70°
2026-05-04 01:14 40.52202 -116.92694 32915 ft 433 kts 70°
2026-05-04 01:15 40.54345 -116.85295 32913 ft 433 kts 70°
2026-05-04 01:15 40.56487 -116.77888 32914 ft 434 kts 70°
2026-05-04 01:16 40.58606 -116.70513 32897 ft 434 kts 70°
2026-05-04 01:16 40.60730 -116.63073 32876 ft 435 kts 70°
2026-05-04 01:17 40.62858 -116.55628 32849 ft 435 kts 70°
2026-05-04 01:17 40.64984 -116.48167 32827 ft 435 kts 70°
2026-05-04 01:18 40.67106 -116.40699 32805 ft 436 kts 70°
2026-05-04 01:18 40.69212 -116.33267 32812 ft 436 kts 70°
2026-05-04 01:19 40.71323 -116.25773 32811 ft 436 kts 71°
2026-05-04 01:19 40.73430 -116.18267 32840 ft 437 kts 71°
2026-05-04 01:20 40.75542 -116.10753 32866 ft 437 kts 70°
2026-05-04 01:20 40.77658 -116.03233 32892 ft 437 kts 71°
2026-05-04 01:21 40.79748 -115.95753 32917 ft 438 kts 71°
2026-05-04 01:21 40.81836 -115.88220 32931 ft 438 kts 71°
2026-05-04 01:22 40.83925 -115.80664 32941 ft 438 kts 71°
2026-05-04 01:22 40.86022 -115.73098 32931 ft 439 kts 71°
2026-05-04 01:23 40.88112 -115.65515 32924 ft 439 kts 71°
2026-05-04 01:23 40.90184 -115.57973 32898 ft 440 kts 71°
2026-05-04 01:24 40.92270 -115.50377 32876 ft 440 kts 71°
2026-05-04 01:24 40.94356 -115.42764 32858 ft 440 kts 71°
2026-05-04 01:25 40.96432 -115.35139 32845 ft 441 kts 71°
2026-05-04 01:25 40.98503 -115.27504 32844 ft 441 kts 71°
2026-05-04 01:26 41.00564 -115.19908 32844 ft 442 kts 71°
2026-05-04 01:26 41.02634 -115.12250 32848 ft 442 kts 72°
2026-05-04 01:27 41.04697 -115.04564 32848 ft 443 kts 72°
2026-05-04 01:27 41.06762 -114.96880 32853 ft 443 kts 72°
2026-05-04 01:28 41.08813 -114.89228 32857 ft 444 kts 72°
2026-05-04 01:28 41.10869 -114.81508 32853 ft 445 kts 72°
2026-05-04 01:29 41.12923 -114.73763 32856 ft 445 kts 72°
2026-05-04 01:29 41.14978 -114.66005 32853 ft 446 kts 72°
2026-05-04 01:30 41.17017 -114.58279 32854 ft 447 kts 72°
2026-05-04 01:30 41.19074 -114.50486 32860 ft 448 kts 72°
2026-05-04 01:31 41.21133 -114.42680 32858 ft 448 kts 72°
2026-05-04 01:31 41.23179 -114.34857 32859 ft 449 kts 72°
2026-05-04 01:32 41.25204 -114.27069 32860 ft 449 kts 72°
2026-05-04 01:32 41.27246 -114.19214 32858 ft 450 kts 72°
2026-05-04 01:33 41.29290 -114.11337 32857 ft 451 kts 72°
2026-05-04 01:33 41.31328 -114.03431 32849 ft 452 kts 72°
2026-05-04 01:34 41.33350 -113.95557 32848 ft 453 kts 72°
2026-05-04 01:34 41.35384 -113.87608 32844 ft 455 kts 72°
2026-05-04 01:35 41.36901 -113.79457 32839 ft 454 kts 81°
2026-05-04 01:35 41.37970 -113.71169 32839 ft 455 kts 81°
2026-05-04 01:36 41.39026 -113.62910 32836 ft 456 kts 81°
2026-05-04 01:36 41.40094 -113.54593 32832 ft 457 kts 81°
2026-05-04 01:37 41.41155 -113.46256 32832 ft 457 kts 81°
2026-05-04 01:37 41.42208 -113.37893 32832 ft 458 kts 81°
2026-05-04 01:38 41.43255 -113.29585 32832 ft 458 kts 81°
2026-05-04 01:38 41.44307 -113.21208 32840 ft 459 kts 81°
2026-05-04 01:39 41.45354 -113.12819 32842 ft 459 kts 81°
2026-05-04 01:39 41.46388 -113.04423 32844 ft 459 kts 81°
2026-05-04 01:40 41.47421 -112.96019 32850 ft 459 kts 81°
2026-05-04 01:40 41.48436 -112.87667 32858 ft 460 kts 81°
2026-05-04 01:41 41.49460 -112.79239 32849 ft 460 kts 81°
2026-05-04 01:41 41.50473 -112.70799 32850 ft 461 kts 81°
2026-05-04 01:42 41.51481 -112.62344 32846 ft 462 kts 81°
2026-05-04 01:42 41.52479 -112.53934 32841 ft 462 kts 81°
2026-05-04 01:43 41.53464 -112.45449 32862 ft 463 kts 82°
2026-05-04 01:43 41.54377 -112.36933 32887 ft 464 kts 82°
2026-05-04 01:44 41.55261 -112.28405 32912 ft 464 kts 82°
2026-05-04 01:44 41.56134 -112.19915 32927 ft 465 kts 82°
2026-05-04 01:45 41.57021 -112.11363 32943 ft 465 kts 82°
2026-05-04 01:45 41.58344 -111.98511 32932 ft 466 kts 82°
2026-05-04 01:46 41.59225 -111.89932 32935 ft 466 kts 83°
2026-05-04 01:46 41.60094 -111.81400 32920 ft 467 kts 83°
2026-05-04 01:47 41.60960 -111.72794 32929 ft 468 kts 83°
2026-05-04 01:47 41.61813 -111.64173 32927 ft 468 kts 83°
2026-05-04 01:48 41.62662 -111.55550 32934 ft 469 kts 83°
2026-05-04 01:48 41.63500 -111.46959 32933 ft 469 kts 83°
2026-05-04 01:49 41.64341 -111.38303 32918 ft 470 kts 83°
2026-05-04 01:49 41.65183 -111.29635 32918 ft 470 kts 83°
2026-05-04 01:50 41.66020 -111.20953 32916 ft 471 kts 83°
2026-05-04 01:50 41.66840 -111.12260 32918 ft 471 kts 83°
2026-05-04 01:51 41.67651 -111.03624 32910 ft 472 kts 83°
2026-05-04 01:51 41.68473 -110.94910 32934 ft 472 kts 83°
2026-05-04 01:52 41.69281 -110.86185 32973 ft 473 kts 83°
2026-05-04 01:52 41.70080 -110.77447 33017 ft 473 kts 83°
2026-05-04 01:53 41.70871 -110.68753 33051 ft 474 kts 83°
2026-05-04 01:53 41.71660 -110.59990 33069 ft 475 kts 83°
2026-05-04 01:54 41.72446 -110.51211 33074 ft 475 kts 83°
2026-05-04 01:54 41.73229 -110.42423 33061 ft 476 kts 83°
2026-05-04 01:55 41.74000 -110.33684 33018 ft 476 kts 83°
2026-05-04 01:55 41.74768 -110.24873 32975 ft 477 kts 83°
2026-05-04 01:56 41.75528 -110.16055 32929 ft 477 kts 83°
2026-05-04 01:56 41.76279 -110.07223 32880 ft 477 kts 83°
2026-05-04 01:57 41.77024 -109.98445 32878 ft 478 kts 83°
2026-05-04 01:57 41.77777 -109.89604 32878 ft 478 kts 83°
2026-05-04 01:58 41.78516 -109.80754 32877 ft 478 kts 83°
2026-05-04 01:58 41.79242 -109.71895 32866 ft 479 kts 83°
2026-05-04 01:59 41.79957 -109.63023 32870 ft 479 kts 83°
2026-05-04 01:59 41.80675 -109.54142 32863 ft 479 kts 83°
2026-05-04 02:00 41.81393 -109.45261 32867 ft 480 kts 83°
2026-05-04 02:00 41.82099 -109.36426 32896 ft 480 kts 83°
2026-05-04 02:01 41.82798 -109.27523 32913 ft 480 kts 83°
2026-05-04 02:01 41.83487 -109.18610 32926 ft 481 kts 83°
2026-05-04 02:02 41.84176 -109.09680 32929 ft 481 kts 83°
2026-05-04 02:02 41.84860 -109.00812 32929 ft 482 kts 83°
2026-05-04 02:03 41.85536 -108.91869 32905 ft 482 kts 83°
2026-05-04 02:03 41.86198 -108.82918 32880 ft 483 kts 83°
2026-05-04 02:04 41.86852 -108.73949 32853 ft 483 kts 83°
2026-05-04 02:04 41.87508 -108.64982 32852 ft 483 kts 83°
2026-05-04 02:05 41.88160 -108.56066 32849 ft 483 kts 83°
2026-05-04 02:05 41.88804 -108.47087 32848 ft 484 kts 83°
2026-05-04 02:06 41.89431 -108.38121 32849 ft 484 kts 83°
2026-05-04 02:06 41.90054 -108.29191 32848 ft 484 kts 83°
2026-05-04 02:07 41.90680 -108.20197 32847 ft 484 kts 83°
2026-05-04 02:07 41.91298 -108.11201 32848 ft 484 kts 83°
2026-05-04 02:08 41.91905 -108.02197 32846 ft 484 kts 84°
2026-05-04 02:08 41.92493 -107.93245 32845 ft 485 kts 84°
2026-05-04 02:09 41.93080 -107.84227 32844 ft 485 kts 84°
2026-05-04 02:09 41.93666 -107.75210 32844 ft 485 kts 84°
2026-05-04 02:10 41.94248 -107.66172 32843 ft 486 kts 83°
2026-05-04 02:10 41.94826 -107.57194 32876 ft 486 kts 84°
2026-05-04 02:11 41.95396 -107.48141 32911 ft 487 kts 84°
2026-05-04 02:11 41.95960 -107.39075 32942 ft 487 kts 84°
2026-05-04 02:12 41.96514 -107.29998 32971 ft 488 kts 84°
2026-05-04 02:12 41.97052 -107.20966 32970 ft 488 kts 84°
2026-05-04 02:13 41.97594 -107.11864 32961 ft 489 kts 84°
2026-05-04 02:13 41.98133 -107.02749 32938 ft 490 kts 84°
2026-05-04 02:14 41.98665 -106.93617 32910 ft 490 kts 84°
2026-05-04 02:14 41.99182 -106.84538 32879 ft 491 kts 84°
2026-05-04 02:15 41.99698 -106.75379 32866 ft 491 kts 84°
2026-05-04 02:15 42.00208 -106.66221 32868 ft 491 kts 84°
2026-05-04 02:16 42.00709 -106.57058 32872 ft 492 kts 84°
2026-05-04 02:16 42.01203 -106.47890 32879 ft 492 kts 84°
2026-05-04 02:17 42.01682 -106.38773 32875 ft 492 kts 84°
2026-05-04 02:17 42.02157 -106.29604 32873 ft 492 kts 84°
2026-05-04 02:18 42.02634 -106.20434 32872 ft 492 kts 84°
2026-05-04 02:18 42.03109 -106.11256 32875 ft 492 kts 84°
2026-05-04 02:19 42.03559 -106.02142 32881 ft 492 kts 84°
2026-05-04 02:19 42.04008 -105.92955 32879 ft 492 kts 84°
2026-05-04 02:20 42.04451 -105.83769 32883 ft 492 kts 84°
2026-05-04 02:20 42.04882 -105.74574 32885 ft 492 kts 84°
2026-05-04 02:21 42.05304 -105.65473 32885 ft 492 kts 84°
2026-05-04 02:21 42.05734 -105.56283 32882 ft 492 kts 84°
2026-05-04 02:22 42.06153 -105.47089 32888 ft 492 kts 84°
2026-05-04 02:22 42.06557 -105.37894 32898 ft 492 kts 84°
2026-05-04 02:23 42.06955 -105.28763 32920 ft 492 kts 84°
2026-05-04 02:23 42.07348 -105.19576 32941 ft 492 kts 84°
2026-05-04 02:24 42.07820 -105.10393 32954 ft 491 kts 82°
2026-05-04 02:24 42.08657 -105.01278 32964 ft 490 kts 79°
2026-05-04 02:25 42.09600 -104.92187 32964 ft 490 kts 79°
2026-05-04 02:25 42.10443 -104.83131 32966 ft 491 kts 81°
2026-05-04 02:26 42.11207 -104.73993 32957 ft 491 kts 81°
2026-05-04 02:26 42.11965 -104.64847 32936 ft 491 kts 81°
2026-05-04 02:27 42.12741 -104.55706 32933 ft 491 kts 81°
2026-05-04 02:27 42.13514 -104.46633 32924 ft 491 kts 81°
2026-05-04 02:28 42.14280 -104.37487 32918 ft 491 kts 81°
2026-05-04 02:28 42.15022 -104.28340 32920 ft 491 kts 81°
2026-05-04 02:29 42.15761 -104.19191 32920 ft 491 kts 81°
2026-05-04 02:29 42.16502 -104.10030 32920 ft 491 kts 81°
2026-05-04 02:30 42.17234 -104.00934 32919 ft 492 kts 81°
2026-05-04 02:30 42.17967 -103.91774 32919 ft 492 kts 81°
2026-05-04 02:31 42.18678 -103.82598 32918 ft 492 kts 81°
2026-05-04 02:31 42.19378 -103.73422 32921 ft 492 kts 81°
2026-05-04 02:32 42.20085 -103.64323 32925 ft 491 kts 81°
2026-05-04 02:32 42.20782 -103.55159 32939 ft 491 kts 81°
2026-05-04 02:33 42.21461 -103.46001 32930 ft 490 kts 81°
2026-05-04 02:33 42.22134 -103.36913 32945 ft 490 kts 81°
2026-05-04 02:34 42.22812 -103.27777 32949 ft 489 kts 81°
2026-05-04 02:34 42.23483 -103.18636 32948 ft 489 kts 81°
2026-05-04 02:35 42.24136 -103.09501 32951 ft 489 kts 81°
2026-05-04 02:35 42.24766 -103.00458 32953 ft 489 kts 81°
2026-05-04 02:36 42.25407 -102.91329 32946 ft 488 kts 81°
2026-05-04 02:36 42.26041 -102.82210 32951 ft 488 kts 81°
2026-05-04 02:37 42.26671 -102.73104 32951 ft 487 kts 81°
2026-05-04 02:37 42.27293 -102.64001 32950 ft 487 kts 82°
2026-05-04 02:38 42.27897 -102.54966 32950 ft 486 kts 82°
2026-05-04 02:38 42.28498 -102.45872 32949 ft 486 kts 82°
2026-05-04 02:39 42.29088 -102.36796 32947 ft 485 kts 82°
2026-05-04 02:39 42.29575 -102.29262 32941 ft 484 kts 82°
2026-05-04 02:40 42.30250 -102.18726 32937 ft 484 kts 82°
2026-05-04 02:40 42.30819 -102.09671 32930 ft 483 kts 82°
2026-05-04 02:41 42.31380 -102.00628 32929 ft 483 kts 82°
2026-05-04 02:41 42.31844 -101.93117 32926 ft 482 kts 82°
2026-05-04 02:42 42.32484 -101.82638 32924 ft 481 kts 82°
2026-05-04 02:42 42.33023 -101.73637 32915 ft 480 kts 82°
2026-05-04 02:43 42.33468 -101.66163 32912 ft 480 kts 82°
2026-05-04 02:43 42.33992 -101.57177 32911 ft 479 kts 82°
2026-05-04 02:44 42.34503 -101.48203 32905 ft 479 kts 82°
2026-05-04 02:44 42.35010 -101.39243 32905 ft 478 kts 82°
2026-05-04 02:45 42.35504 -101.30350 32895 ft 477 kts 83°
2026-05-04 02:45 42.35996 -101.21409 32887 ft 476 kts 82°
2026-05-04 02:46 42.36484 -101.12480 32883 ft 476 kts 83°
2026-05-04 02:46 42.36962 -101.03564 32877 ft 475 kts 83°
2026-05-04 02:47 42.37429 -100.94652 32876 ft 475 kts 83°
2026-05-04 02:47 42.37887 -100.85806 32874 ft 474 kts 83°
2026-05-04 02:48 42.38351 -100.76910 32872 ft 474 kts 83°
2026-05-04 02:48 42.38808 -100.68018 32873 ft 474 kts 83°
2026-05-04 02:49 42.39250 -100.59129 32870 ft 473 kts 83°
2026-05-04 02:49 42.39680 -100.50252 32865 ft 473 kts 83°
2026-05-04 02:50 42.40098 -100.41432 32864 ft 472 kts 83°
2026-05-04 02:50 42.40516 -100.32591 32866 ft 472 kts 83°
2026-05-04 02:51 42.40931 -100.23717 32868 ft 472 kts 83°
2026-05-04 02:51 42.41335 -100.14906 32872 ft 472 kts 84°
2026-05-04 02:52 42.41738 -100.06041 32875 ft 472 kts 84°
2026-05-04 02:52 42.42139 -99.97173 32878 ft 472 kts 84°
2026-05-04 02:53 42.42524 -99.88307 32875 ft 472 kts 84°
2026-05-04 02:53 42.42899 -99.79442 32874 ft 472 kts 84°
2026-05-04 02:54 42.43265 -99.70642 32869 ft 471 kts 84°
2026-05-04 02:54 42.43623 -99.61789 32868 ft 471 kts 84°
2026-05-04 02:55 42.44159 -99.48520 32866 ft 470 kts 84°
2026-05-04 02:56 42.44507 -99.39740 32869 ft 470 kts 84°
2026-05-04 02:56 42.44853 -99.30903 32866 ft 470 kts 84°
2026-05-04 02:57 42.45189 -99.22068 32867 ft 470 kts 84°
2026-05-04 02:57 42.45512 -99.13236 32868 ft 470 kts 84°
2026-05-04 02:58 42.45822 -99.04467 32870 ft 470 kts 84°
2026-05-04 02:58 42.46138 -98.95639 32876 ft 469 kts 84°
2026-05-04 02:59 42.46450 -98.86809 32879 ft 469 kts 84°
2026-05-04 02:59 42.46749 -98.77972 32881 ft 469 kts 84°
2026-05-04 03:00 42.47036 -98.69204 32881 ft 469 kts 84°
2026-05-04 03:00 42.47380 -98.60380 32880 ft 469 kts 83°
2026-05-04 03:01 42.47799 -98.51573 32885 ft 469 kts 83°
2026-05-04 03:01 42.48203 -98.42763 32877 ft 468 kts 83°
2026-05-04 03:02 42.48574 -98.34015 32880 ft 468 kts 84°
2026-05-04 03:02 42.48938 -98.25205 32882 ft 468 kts 84°
2026-05-04 03:03 42.49297 -98.16397 32882 ft 468 kts 84°
2026-05-04 03:03 42.49654 -98.07591 32883 ft 468 kts 84°
2026-05-04 03:04 42.50000 -97.98786 32884 ft 468 kts 84°
2026-05-04 03:04 42.50336 -97.90040 32889 ft 468 kts 84°
2026-05-04 03:05 42.50674 -97.81228 32887 ft 468 kts 84°
2026-05-04 03:05 42.51000 -97.72453 32888 ft 468 kts 84°
2026-05-04 03:06 42.51321 -97.63644 32889 ft 468 kts 84°
2026-05-04 03:06 42.51637 -97.54839 32883 ft 468 kts 84°
2026-05-04 03:07 42.51938 -97.46089 32884 ft 468 kts 84°
2026-05-04 03:07 42.52240 -97.37276 32888 ft 468 kts 84°
2026-05-04 03:08 42.52539 -97.28456 32881 ft 468 kts 84°
2026-05-04 03:08 42.52826 -97.19640 32871 ft 468 kts 84°
2026-05-04 03:09 42.53106 -97.10872 32868 ft 469 kts 84°
2026-05-04 03:09 42.53378 -97.02050 32860 ft 469 kts 84°
2026-05-04 03:10 42.53645 -96.93216 32859 ft 469 kts 85°
2026-05-04 03:10 42.53905 -96.84390 32854 ft 469 kts 85°
2026-05-04 03:11 42.54152 -96.75617 32857 ft 469 kts 85°
2026-05-04 03:11 42.54344 -96.66777 32857 ft 469 kts 85°
2026-05-04 03:12 42.54491 -96.57931 32857 ft 469 kts 86°
2026-05-04 03:12 42.54633 -96.49081 32854 ft 470 kts 86°
2026-05-04 03:13 42.54784 -96.40283 32854 ft 470 kts 86°
2026-05-04 03:13 42.54928 -96.31420 32853 ft 470 kts 86°
2026-05-04 03:14 42.55063 -96.22545 32855 ft 470 kts 86°
2026-05-04 03:14 42.55196 -96.13677 32851 ft 471 kts 86°
2026-05-04 03:15 42.55322 -96.04798 32849 ft 471 kts 86°
2026-05-04 03:15 42.55439 -95.95982 32854 ft 471 kts 86°
2026-05-04 03:16 42.55549 -95.87107 32857 ft 471 kts 86°
2026-05-04 03:16 42.55649 -95.78220 32852 ft 471 kts 86°
2026-05-04 03:17 42.55738 -95.69340 32852 ft 471 kts 86°
2026-05-04 03:17 42.55828 -95.60519 32853 ft 471 kts 86°
2026-05-04 03:18 42.55920 -95.51635 32849 ft 471 kts 86°
2026-05-04 03:18 42.55987 -95.42753 32867 ft 471 kts 86°
2026-05-04 03:19 42.56048 -95.33872 32869 ft 471 kts 86°
2026-05-04 03:19 42.56107 -95.25049 32863 ft 471 kts 86°
2026-05-04 03:20 42.56165 -95.16167 32861 ft 471 kts 86°
2026-05-04 03:20 42.56212 -95.07308 32857 ft 471 kts 87°
2026-05-04 03:21 42.56248 -94.98476 32859 ft 471 kts 87°
2026-05-04 03:21 42.56282 -94.89586 32859 ft 472 kts 87°
2026-05-04 03:22 42.56311 -94.80688 32863 ft 472 kts 87°
2026-05-04 03:22 42.56341 -94.71788 32864 ft 472 kts 87°
2026-05-04 03:23 42.56363 -94.62882 32863 ft 472 kts 87°
2026-05-04 03:23 42.56360 -94.54027 32865 ft 473 kts 87°
2026-05-04 03:24 42.56353 -94.45111 32861 ft 473 kts 87°
2026-05-04 03:24 42.56347 -94.36190 32856 ft 473 kts 87°
2026-05-04 03:25 42.56344 -94.27265 32854 ft 473 kts 87°
2026-05-04 03:25 42.56327 -94.18391 32855 ft 474 kts 87°
2026-05-04 03:26 42.56283 -94.09448 32857 ft 474 kts 88°
2026-05-04 03:26 42.56243 -94.00507 32856 ft 474 kts 87°
2026-05-04 03:27 42.56207 -93.91559 32842 ft 474 kts 87°
2026-05-04 03:27 42.56155 -93.82668 32840 ft 474 kts 88°
2026-05-04 03:28 42.56092 -93.73721 32836 ft 474 kts 88°
2026-05-04 03:28 42.56027 -93.64774 32839 ft 475 kts 88°
2026-05-04 03:29 42.55962 -93.55824 32844 ft 475 kts 88°
2026-05-04 03:29 42.55891 -93.46864 32851 ft 475 kts 88°
2026-05-04 03:30 42.55809 -93.37969 32863 ft 475 kts 88°
2026-05-04 03:30 42.55720 -93.29006 32863 ft 475 kts 88°
2026-05-04 03:31 42.55614 -93.20036 32855 ft 476 kts 88°
2026-05-04 03:31 42.55499 -93.11064 32847 ft 476 kts 88°
2026-05-04 03:32 42.55308 -93.02146 32849 ft 476 kts 89°
2026-05-04 03:32 42.55046 -92.93170 32843 ft 477 kts 89°
2026-05-04 03:33 42.54783 -92.84188 32836 ft 477 kts 89°
2026-05-04 03:33 42.54537 -92.75209 32840 ft 477 kts 89°
2026-05-04 03:34 42.54289 -92.66290 32842 ft 477 kts 89°
2026-05-04 03:34 42.54025 -92.57304 32848 ft 477 kts 89°
2026-05-04 03:35 42.53754 -92.48326 32850 ft 477 kts 89°
2026-05-04 03:35 42.53478 -92.39351 32849 ft 477 kts 89°
2026-05-04 03:36 42.53197 -92.30366 32849 ft 477 kts 89°
2026-05-04 03:36 42.52908 -92.21434 32841 ft 477 kts 89°
2026-05-04 03:37 42.52609 -92.12448 32858 ft 477 kts 90°
2026-05-04 03:37 42.52323 -92.03456 32866 ft 477 kts 88°
2026-05-04 03:38 42.52336 -91.94475 32872 ft 476 kts 85°
2026-05-04 03:38 42.52495 -91.85574 32870 ft 476 kts 85°
2026-05-04 03:39 42.52610 -91.76608 32862 ft 476 kts 86°
2026-05-04 03:39 42.52650 -91.67627 32854 ft 476 kts 86°
2026-05-04 03:40 42.52668 -91.58654 32844 ft 476 kts 86°
2026-05-04 03:40 42.52692 -91.49745 32833 ft 476 kts 86°
2026-05-04 03:41 42.52712 -91.40771 32825 ft 476 kts 86°
2026-05-04 03:41 42.52722 -91.31798 32826 ft 476 kts 86°
2026-05-04 03:42 42.52729 -91.22829 32825 ft 476 kts 86°
2026-05-04 03:42 42.52724 -91.13919 32827 ft 476 kts 86°
2026-05-04 03:43 42.52710 -91.04951 32825 ft 476 kts 87°
2026-05-04 03:43 42.52689 -90.95977 32826 ft 476 kts 86°
2026-05-04 03:44 42.52663 -90.87008 32827 ft 476 kts 87°
2026-05-04 03:44 42.52633 -90.78036 32832 ft 476 kts 87°
2026-05-04 03:45 42.52586 -90.69120 32829 ft 476 kts 87°
2026-05-04 03:45 42.52530 -90.60140 32827 ft 476 kts 87°
2026-05-04 03:46 42.52478 -90.51158 32828 ft 476 kts 87°
2026-05-04 03:46 42.52409 -90.42144 32835 ft 484 kts 87°
2026-05-04 03:47 42.52333 -90.32965 32840 ft 496 kts 87°
2026-05-04 03:47 42.52256 -90.23570 32560 ft 498 kts 87°
2026-05-04 03:47 42.52223 -90.18915 32048 ft 491 kts 87°
2026-05-04 03:48 42.52189 -90.14316 31545 ft 485 kts 87°
2026-05-04 03:48 42.52156 -90.09777 31055 ft 479 kts 88°
2026-05-04 03:48 42.52122 -90.05283 30573 ft 474 kts 88°
2026-05-04 03:48 42.52086 -90.00891 30107 ft 470 kts 88°
2026-05-04 03:49 42.52048 -89.96488 29608 ft 465 kts 88°
2026-05-04 03:49 42.52007 -89.92129 29071 ft 461 kts 88°
2026-05-04 03:49 42.51963 -89.87808 28542 ft 456 kts 88°
2026-05-04 03:49 42.51915 -89.83536 28008 ft 451 kts 88°
2026-05-04 03:50 42.51863 -89.79319 27513 ft 446 kts 89°
2026-05-04 03:50 42.51547 -89.75161 27011 ft 444 kts 97°
2026-05-04 03:50 42.51043 -89.71055 26519 ft 440 kts 97°
2026-05-04 03:50 42.50545 -89.66996 26200 ft 431 kts 97°
2026-05-04 03:51 42.50057 -89.63000 25748 ft 427 kts 96°
2026-05-04 03:51 42.49582 -89.59108 25357 ft 422 kts 96°
2026-05-04 03:51 42.49103 -89.55201 24909 ft 419 kts 97°
2026-05-04 03:51 42.48629 -89.51326 24471 ft 416 kts 96°
2026-05-04 03:52 42.48160 -89.47480 24035 ft 413 kts 96°
2026-05-04 03:52 42.47689 -89.43649 23620 ft 411 kts 97°
2026-05-04 03:52 42.47217 -89.39840 23187 ft 409 kts 97°
2026-05-04 03:52 42.46755 -89.36105 22713 ft 407 kts 97°
2026-05-04 03:53 42.46292 -89.32337 22233 ft 405 kts 97°
2026-05-04 03:53 42.45834 -89.28586 21738 ft 403 kts 97°
2026-05-04 03:53 42.45375 -89.24855 21256 ft 401 kts 97°
2026-05-04 03:53 42.44916 -89.21131 20784 ft 400 kts 97°
2026-05-04 03:54 42.44459 -89.17439 20301 ft 398 kts 97°
2026-05-04 03:54 42.43998 -89.13747 19812 ft 396 kts 97°
2026-05-04 03:54 42.43541 -89.10076 19339 ft 395 kts 97°
2026-05-04 03:54 42.43075 -89.06421 18873 ft 393 kts 98°
2026-05-04 03:55 42.42609 -89.02781 18409 ft 392 kts 98°
2026-05-04 03:55 42.42153 -88.99200 17938 ft 390 kts 98°
2026-05-04 03:55 42.41697 -88.95591 17441 ft 388 kts 98°
2026-05-04 03:55 42.41244 -88.92002 16962 ft 386 kts 98°
2026-05-04 03:56 42.40796 -88.88438 16507 ft 383 kts 98°
2026-05-04 03:56 42.40350 -88.84900 16047 ft 380 kts 98°
2026-05-04 03:56 42.39904 -88.81394 15596 ft 377 kts 98°
2026-05-04 03:56 42.39458 -88.77913 15140 ft 374 kts 98°
2026-05-04 03:57 42.39012 -88.74458 14693 ft 372 kts 98°
2026-05-04 03:57 42.38570 -88.71070 14262 ft 369 kts 98°
2026-05-04 03:57 42.38128 -88.67661 13825 ft 367 kts 98°
2026-05-04 03:57 42.37689 -88.64274 13386 ft 364 kts 98°
2026-05-04 03:58 42.36811 -88.57571 12458 ft 359 kts 99°
2026-05-04 03:58 42.36375 -88.54264 12008 ft 357 kts 99°
2026-05-04 03:58 42.35943 -88.50973 11570 ft 354 kts 99°
2026-05-04 03:59 42.35510 -88.47687 11069 ft 354 kts 99°
2026-05-04 03:59 42.35079 -88.44433 10985 ft 351 kts 99°
2026-05-04 03:59 42.34616 -88.41234 10994 ft 353 kts 105°
2026-05-04 03:59 42.33696 -88.38169 10793 ft 351 kts 121°
2026-05-04 04:00 42.32301 -88.35482 10695 ft 350 kts 127°
2026-05-04 04:00 42.30858 -88.32823 10634 ft 351 kts 127°
2026-05-04 04:00 42.29402 -88.30180 10554 ft 350 kts 129°
2026-05-04 04:00 42.27871 -88.27624 10487 ft 350 kts 131°
2026-05-04 04:01 42.26296 -88.25130 10407 ft 349 kts 132°
2026-05-04 04:01 42.24725 -88.22702 10332 ft 349 kts 132°
2026-05-04 04:01 42.23131 -88.20239 10253 ft 348 kts 132°
2026-05-04 04:01 42.21543 -88.17767 10173 ft 348 kts 131°
2026-05-04 04:02 42.19835 -88.15479 10102 ft 346 kts 144°
2026-05-04 04:02 42.19173 -88.14842 10077 ft 345 kts 149°
2026-05-04 04:02 42.15565 -88.12696 9965 ft 341 kts 162°
2026-05-04 04:02 42.13345 -88.11567 9888 ft 341 kts 162°
2026-05-04 04:03 42.11130 -88.10432 9820 ft 340 kts 162°
2026-05-04 04:03 42.08919 -88.09297 9748 ft 340 kts 161°
2026-05-04 04:03 42.06738 -88.08179 9667 ft 340 kts 161°
2026-05-04 04:03 42.04541 -88.07053 9589 ft 339 kts 161°
2026-05-04 04:04 42.02338 -88.05924 9505 ft 339 kts 161°
2026-05-04 04:04 42.00137 -88.04796 9428 ft 338 kts 161°
2026-05-04 04:04 41.97939 -88.03673 9345 ft 338 kts 161°
2026-05-04 04:04 41.95743 -88.02558 9263 ft 337 kts 162°
2026-05-04 04:05 41.93564 -88.01454 9183 ft 337 kts 162°
2026-05-04 04:05 41.91435 -88.00142 9099 ft 339 kts 148°
2026-05-04 04:05 41.89746 -87.98006 9025 ft 341 kts 126°
2026-05-04 04:05 41.88706 -87.95171 8944 ft 340 kts 104°
2026-05-04 04:06 41.88453 -87.92040 9013 ft 339 kts 88°
2026-05-04 04:06 41.88450 -87.88875 9006 ft 339 kts 88°
2026-05-04 04:06 41.88448 -87.85710 9009 ft 339 kts 88°
2026-05-04 04:06 41.88446 -87.82547 9008 ft 339 kts 88°
2026-05-04 04:07 41.88443 -87.79383 9024 ft 339 kts 88°
2026-05-04 04:07 41.88440 -87.76276 9017 ft 325 kts 88°
2026-05-04 04:07 41.88435 -87.73316 9021 ft 309 kts 88°
2026-05-04 04:07 41.88428 -87.70542 9023 ft 296 kts 88°
2026-05-04 04:08 41.88424 -87.67779 9022 ft 295 kts 88°
2026-05-04 04:08 41.88420 -87.65029 9022 ft 295 kts 88°
2026-05-04 04:08 41.88415 -87.62244 8568 ft 301 kts 88°
2026-05-04 04:08 41.88409 -87.59420 8109 ft 304 kts 89°
2026-05-04 04:09 41.88401 -87.56577 7654 ft 306 kts 89°
2026-05-04 04:09 41.88393 -87.53715 7206 ft 308 kts 89°
2026-05-04 04:09 41.88386 -87.50822 6758 ft 310 kts 89°
2026-05-04 04:09 41.88382 -87.47959 6322 ft 311 kts 88°
2026-05-04 04:10 41.88410 -87.45101 5849 ft 300 kts 88°
2026-05-04 04:10 41.88456 -87.42363 5394 ft 288 kts 87°
2026-05-04 04:10 41.88507 -87.39724 4940 ft 278 kts 87°
2026-05-04 04:10 41.88582 -87.37177 4491 ft 267 kts 79°
2026-05-04 04:11 41.89240 -87.34950 4082 ft 253 kts 47°
2026-05-04 04:11 41.90512 -87.33503 4015 ft 233 kts 21°
2026-05-04 04:11 41.92027 -87.32943 3972 ft 222 kts 355°
2026-05-04 04:11 41.93506 -87.33266 4005 ft 212 kts 332°
2026-05-04 04:12 41.94705 -87.34296 4014 ft 206 kts 311°
2026-05-04 04:12 41.95635 -87.35750 4019 ft 205 kts 305°
2026-05-04 04:12 41.96328 -87.37405 4014 ft 203 kts 286°
2026-05-04 04:12 41.96525 -87.39267 4017 ft 203 kts 272°
2026-05-04 04:13 41.96534 -87.41163 4019 ft 203 kts 271°
2026-05-04 04:13 41.96535 -87.43057 4018 ft 202 kts 271°
2026-05-04 04:13 41.96539 -87.44946 4016 ft 202 kts 271°
2026-05-04 04:13 41.96544 -87.46834 4015 ft 203 kts 271°
2026-05-04 04:14 41.96549 -87.48731 4018 ft 203 kts 271°
2026-05-04 04:14 41.96553 -87.50630 4018 ft 203 kts 271°
2026-05-04 04:14 41.96557 -87.52521 4016 ft 202 kts 271°
2026-05-04 04:14 41.96561 -87.54385 4017 ft 201 kts 270°
2026-05-04 04:15 41.96564 -87.56158 4033 ft 178 kts 271°
2026-05-04 04:15 41.96567 -87.57784 4043 ft 172 kts 271°
2026-05-04 04:15 41.96570 -87.59383 4020 ft 170 kts 271°
2026-05-04 04:15 41.96572 -87.60967 4019 ft 169 kts 271°
2026-05-04 04:16 41.96574 -87.62508 4034 ft 161 kts 271°
2026-05-04 04:16 41.96575 -87.63942 4008 ft 143 kts 270°
2026-05-04 04:16 41.96577 -87.65250 3979 ft 140 kts 271°
2026-05-04 04:16 41.96578 -87.66529 3851 ft 139 kts 271°
2026-05-04 04:17 41.96579 -87.67821 3692 ft 138 kts 271°
2026-05-04 04:17 41.96580 -87.69109 3519 ft 138 kts 271°
2026-05-04 04:17 41.96581 -87.70391 3343 ft 137 kts 271°
2026-05-04 04:17 41.96582 -87.71667 3163 ft 137 kts 271°
2026-05-04 04:18 41.96582 -87.72943 2983 ft 136 kts 270°
2026-05-04 04:18 41.96582 -87.74222 2800 ft 137 kts 270°
2026-05-04 04:18 41.96583 -87.75499 2615 ft 136 kts 270°
2026-05-04 04:18 41.96583 -87.76763 2432 ft 135 kts 270°
2026-05-04 04:19 41.96583 -87.78003 2254 ft 134 kts 269°
2026-05-04 04:19 41.96582 -87.79258 2082 ft 134 kts 268°
2026-05-04 04:19 41.96582 -87.80493 1897 ft 133 kts 268°
2026-05-04 04:19 41.96581 -87.81735 1724 ft 133 kts 267°
2026-05-04 04:20 41.96581 -87.82999 1547 ft 136 kts 266°
2026-05-04 04:20 41.96580 -87.84282 1378 ft 140 kts 266°
2026-05-04 04:20 41.96579 -87.85616 1202 ft 145 kts 267°
2026-05-04 04:20 41.96577 -87.86958 1023 ft 146 kts 267°
2026-05-04 04:21 41.96576 -87.88335 839 ft 149 kts 266°
2026-05-04 04:21 41.96575 -87.89725 691 ft 148 kts 267°
2026-05-04 04:21 41.96564 -87.90999 670 ft 111 kts 272°
2026-05-04 04:21 41.96575 -87.91545 669 ft 27 kts 276°
2026-05-04 04:22 41.96629 -87.91778 668 ft 21 kts 297°
2026-05-04 04:22 41.96709 -87.91836 669 ft 17 kts 40°
2026-05-04 04:22 41.96739 -87.91657 669 ft 23 kts 89°
2026-05-04 04:22 41.96738 -87.91415 669 ft 23 kts 90°
2026-05-04 04:23 41.96737 -87.91212 669 ft 25 kts 90°
2026-05-04 04:23 41.96737 -87.90950 669 ft 32 kts 89°
2026-05-04 04:23 41.96736 -87.90625 668 ft 38 kts 91°
2026-05-04 04:23 41.96736 -87.90246 669 ft 43 kts 89°
2026-05-04 04:24 41.96738 -87.89825 669 ft 41 kts 91°
2026-05-04 04:24 41.96737 -87.89529 669 ft 7 kts 86°
2026-05-04 04:24 41.96742 -87.89430 669 ft 15 kts 88°
2026-05-04 04:24 41.96743 -87.89261 669 ft 9 kts 90°
2026-05-04 04:25 41.96747 -87.89206 669 ft 11 kts 77°
2026-05-04 04:25 41.96797 -87.89097 668 ft 15 kts 48°
2026-05-04 04:25 41.96924 -87.89070 668 ft 23 kts 359°
2026-05-04 04:25 41.97095 -87.89072 669 ft 22 kts
2026-05-04 04:26 41.97189 -87.89138 669 ft 20 kts 283°
2026-05-04 04:26 41.97193 -87.89361 669 ft 28 kts 270°
2026-05-04 04:26 41.97245 -87.89558 669 ft 25 kts 323°
2026-05-04 04:26 41.97294 -87.89665 669 ft 16 kts 255°
2026-05-04 04:27 41.97292 -87.89777 669 ft 13 kts 319°
2026-05-04 04:27 41.97302 -87.89789 669 ft 5 kts 320°
2026-05-04 04:27 41.97355 -87.89828 669 ft 11 kts
2026-05-04 04:27 41.97412 -87.89774 669 ft 1 kts 39°